This is the latest recevied weather packets stored in our database for station/object WA4TPR. If no packets are shown the sender has not sent any weather packets the latest 10 day(s).
| Time | Temp. | Humidity | Pressure | Rain* | Wind** | Luminosity | Snow |
|---|---|---|---|---|---|---|---|
| 1778027366 | 25° C | 75% | 1018.6 hPa | 0 mm | - | 0 W/m² | - |
| 1778027062 | 25° C | 75% | 1018.6 hPa | 0 mm | - | 0 W/m² | - |
| 1778026758 | 25° C | 74% | 1018.4 hPa | 0 mm | - | 0 W/m² | - |
| 1778026455 | 25.56° C | 74% | 1018.5 hPa | 0 mm | - | 0 W/m² | - |
| 1778026152 | 25.56° C | 73% | 1018.4 hPa | 0 mm | - | 1 W/m² | - |
| 1778025850 | 25.56° C | 72% | 1018.3 hPa | 0 mm | - | 2 W/m² | - |
| 1778025546 | 25.56° C | 72% | 1018.5 hPa | 0 mm | - | 3 W/m² | - |
| 1778025244 | 26.11° C | 71% | 1018.4 hPa | 0 mm | - | 6 W/m² | - |
| 1778024941 | 26.11° C | 70% | 1018.4 hPa | 0 mm | - | 10 W/m² | - |
| 1778024638 | 26.11° C | 70% | 1018.5 hPa | 0 mm | - | 16 W/m² | - |
| 1778024335 | 26.67° C | 70% | 1018.5 hPa | 0 mm | - | 27 W/m² | - |
| 1778024033 | 26.67° C | 69% | 1018.3 hPa | 0 mm | - | 43 W/m² | - |
| 1778023730 | 26.67° C | 69% | 1018.7 hPa | 0 mm | - | 51 W/m² | - |
| 1778023428 | 26.67° C | 68% | 1018.5 hPa | 0 mm | - | 53 W/m² | - |
| 1778023124 | 26.67° C | 68% | 1018.6 hPa | 0 mm | - | 59 W/m² | - |
| 1778022822 | 27.22° C | 67% | 1018.5 hPa | 0 mm | - | 66 W/m² | - |
| 1778022520 | 27.22° C | 67% | 1018.4 hPa | 0 mm | - | 72 W/m² | - |
| 1778022217 | 27.22° C | 66% | 1018.4 hPa | 0 mm | - | 83 W/m² | - |
| 1778021913 | 27.78° C | 65% | 1018.5 hPa | 0 mm | - | 106 W/m² | - |
| 1778021611 | 27.78° C | 65% | 1018.4 hPa | 0 mm | - | 123 W/m² | - |
| 1778021305 | 27.78° C | 65% | 1018.2 hPa | 0 mm | - | 131 W/m² | - |
| 1778021004 | 27.78° C | 66% | 1018.3 hPa | 0 mm | - | 142 W/m² | - |
| 1778020701 | 27.78° C | 66% | 1018.1 hPa | 0 mm | - | 143 W/m² | - |
| 1778020398 | 27.78° C | 66% | 1018.3 hPa | 0 mm | - | 125 W/m² | - |
| 1778020093 | 28.33° C | 64% | 1018.2 hPa | 0 mm | - | 186 W/m² | - |
* Rain latest hour (hover to see other rain measurements)
** Current wind speed in m/s (hover to see current wind gust speed)